If you wish to contribute or participate in the discussions about articles you are invited to join SKYbrary as a registered user

 Actions

Mount Isa Airport

From SKYbrary Wiki

YBMA /
Revision as of 07:13, 1 July 2020 by Admin (talk | contribs) (Text replacement - "{{Show_Airportmaps}} " to "{{ShowAirportMap|TerrainZoom=10|AirportLayoutZoom=13}} ")
(diff) ← Older revision | Latest revision (diff) | Newer revision → (diff)
Airport
ICAO: YBMA – IATA: ISA
Summary
Name Mount Isa Airport
Region Asia and Pacific
Territory Australia AU.gif
Location Mount Isa, Queensland
Serving Mount Isa
Elevation 341.681 m
1,121 ft
1,121 ft341.681 m
Coordinates 20° 40' 4.49" S, 139° 29' 30.11" E
Runways
Designator Length Width Surface ROPS
12/30 854 m2,801.837 ft
18 m59.055 ft
GVL /
16/34 2560 m8,398.95 ft
45 m147.638 ft
ASP yes/yes


METAR
Observation YBMA 031100Z AUTO 17005KT 9999 // NCD 17/M00 Q1015
Station Mount Isa Amo
Date/Time 03 August 2020 11:00:00
Wind direction 170°
Wind speed 05 kts
Lowest cloud amount no clouds detected
Temperature 17°C
Dew point
Humidity 31%
QNH 1015 hPa
Weather condition n/a

Maps

Terrain

Loading map...

Airport Layout

Loading map...


Accidents & Serious Incidents at or in vicinity of YBMA

None on SKYbrary